Regional Weather Roundup
Issued by NWS Little Rock, AR

Home | Current Version | Previous Version | Graphics & Text | Print | Product List | Glossary On
Versions: 1 2 3 4 5 6 7 8 9 10 11 12 13 14 15 16 17 18 19 20 21 22 23 24 25 26 27 28 29 30 31 32
000
ASUS44 KLZK 181105
RWRLZK

WEATHER ROUNDUP FOR ARKANSAS
NATIONAL WEATHER SERVICE LITTLE ROCK AR
500 AM CST WED JAN 18 2017

NOTE: "FAIR" INDICATES FEW OR NO CLOUDS BELOW 12,000 FEET WITH NO
SIGNIFICANT WEATHER AND/OR OBSTRUCTIONS TO VISIBILITY.

ARZ001-003-010-029-181200-
NORTHWEST ARKANSAS

CITY           SKY/WX    TMP DP  RH WIND       PRES   REMARKS
FAYETTEVILLE   CLOUDY    31  31 100 N3        30.15F FOG
FORT SMITH     PTCLDY    41  37  86 CALM      30.16S
HARRISON       CLOUDY    37  37 100 CALM      30.16S FOG
BENTONVILLE    CLOUDY   N/A N/A N/A NE6       30.16S VSB 1/4
ROGERS         FOG       36  35  96 N3        30.17S VSB 1/4
SILOAM SPGS    CLEAR     36  32  87 NE3       30.14F
HIGHFILL       FOG       33  32  96 N7        30.14S VSB 1/4 WCI  27
$$

ARZ004-005-016-181200-
NORTH CENTRAL ARKANSAS

CITY           SKY/WX    TMP DP  RH WIND       PRES   REMARKS
BATESVILLE     CLOUDY    39  37  93 CALM      30.21R
FLIPPIN        CLOUDY    39  34  81 N6        30.16S
MTN HOME       CLOUDY    37  36  96 CALM      30.17R
$$

ARZ040-041-181200-
WEST CENTRAL ARKANSAS

CITY           SKY/WX    TMP DP  RH WIND       PRES   REMARKS
MENA           CLOUDY    46  46 100 CALM      30.15R
MOUNT IDA      CLOUDY    45  43  93 NW5       30.15R
$$

ARZ009-017-025-026-028-181200-
NORTHEAST ARKANSAS

CITY           SKY/WX    TMP DP  RH WIND       PRES   REMARKS
CORNING        CLOUDY    41  39  93 NE8       30.20R
JONESBORO      CLOUDY    38  36  92 CALM      30.20R
NEWPORT        PTCLDY    39  38  96 N6        30.20R
WALNUT RIDGE   CLOUDY    41  36  81 CALM      30.19S
BLYTHEVILLE    MOCLDY    40  39  97 N5        30.20R
$$

ARZ022-023-033-042-044-181200-
CENTRAL ARKANSAS

CITY           SKY/WX    TMP DP  RH WIND       PRES   REMARKS
LITTLE ROCK    LGT RAIN  45  43  93 E8        30.16F
JACKSONVILLE   CLOUDY    44  42  93 E8        30.15F
SEARCY         CLOUDY    42  40  92 NE9       30.20S
HOT SPRINGS    LGT RAIN  46  45  96 E6        30.14S
RUSSELLVILLE   CLOUDY    41  39  93 CALM      30.16S
CLINTON        FAIR      37  37 100 CALM      30.17F
$$

ARZ036-181200-
EAST ARKANSAS

CITY           SKY/WX    TMP DP  RH WIND       PRES   REMARKS
WEST MEMPHIS   CLOUDY    43  42  97 CALM      30.17S
$$

ARZ050-053-066-070-073-181200-
SOUTHWEST ARKANSAS

CITY           SKY/WX    TMP DP  RH WIND       PRES   REMARKS
ARKADELPHIA    LGT RAIN  47  46  97 SE8       30.17R
CAMDEN         RAIN      48  46  93 SE7       30.17S
TEXARKANA      LGT RAIN  50  50 100 E6        30.11F
EL DORADO      LGT RAIN  51  50  96 NE8       30.15F
DE QUEEN       RAIN      48  48 100 N3        30.13S FOG
$$

ARZ056-057-069-181200-
SOUTHEAST ARKANSAS

CITY           SKY/WX    TMP DP  RH WIND       PRES   REMARKS
PINE BLUFF     LGT RAIN  47  46  97 CALM      30.17R
STUTTGART      CLOUDY    46  37  71 NE7       30.18F
MONTICELLO     CLOUDY    50  47  89 CALM      30.16S

$$






USA.gov is the U.S. government's official web portal to all federal, state and local government web resources and services.